| time (UTC) | temp F | wind direction | speed knots | gust knots | rain 1hr in | rain 24hr in | rain mn in | humidity % | barometer mb |
| 20260901071552 | 0 | 0.0 | 0.0 | 0.00 | 0.00 | 0.00 | |||
| 20260901064200 | 61 | 284 | 7.0 | 9.6 | 0.00 | 0.00 | 0.00 | 69 | 1012.4 |
| 20260901063435 | 61 | 260 | 7.0 | 15.6 | 0.00 | 0.00 | 0.00 | 69 | 1012.4 |
| 20260901062935 | 61 | 237 | 6.1 | 15.6 | 0.00 | 0.00 | 0.00 | 68 | 1012.3 |
| 20260901062431 | 61 | 254 | 6.1 | 13.0 | 0.00 | 0.00 | 0.00 | 69 | 1012.3 |
| 20260901061937 | 61 | 275 | 6.1 | 5.2 | 0.00 | 0.00 | 0.00 | 69 | 1012.3 |
| 20260901061629 | 0 | 0.0 | 0.0 | 0.00 | 0.00 | 0.00 | |||
| 20260901060348 | 61 | 240 | 6.1 | 11.3 | 0.00 | 0.00 | 0.00 | 68 | 1012.5 |
| 20260901055845 | 61 | 240 | 6.1 | 11.3 | 0.00 | 0.00 | 0.00 | 68 | 1012.5 |
| 20260901055608 | 61 | 237 | 2.6 | 10.4 | 0.00 | 0.00 | 0.00 | 68 | 1012.6 |
| 20260901055107 | 61 | 264 | 2.6 | 7.8 | 0.00 | 0.00 | 0.00 | 68 | 1012.6 |
| 20260901054342 | 61 | 243 | 2.6 | 6.1 | 0.00 | 0.00 | 0.00 | 68 | 1012.6 |
| 20260901054102 | 61 | 249 | 3.5 | 9.6 | 0.00 | 0.00 | 0.00 | 69 | 1012.5 |
| 20260901053340 | 61 | 221 | 4.3 | 9.6 | 0.00 | 0.00 | 0.00 | 69 | 1012.4 |
| 20260901052839 | 61 | 240 | 6.1 | 9.6 | 0.00 | 0.00 | 0.00 | 69 | 1012.3 |
| 20260901052340 | 61 | 265 | 6.1 | 9.6 | 0.00 | 0.00 | 0.00 | 69 | 1012.3 |
| 20260901051832 | 61 | 273 | 7.0 | 8.7 | 0.00 | 0.00 | 0.00 | 69 | 1012.3 |
| 20260901051524 | 0 | 0.0 | 0.0 | 0.00 | 0.00 | 0.00 | |||
| 20260901050125 | 61 | 278 | 6.1 | 11.3 | 0.00 | 0.00 | 0.00 | 69 | 1012.4 |
| 20260901045357 | 61 | 259 | 7.0 | 12.2 | 0.00 | 0.00 | 0.00 | 69 | 1012.4 |
| 20260901044857 | 61 | 250 | 7.0 | 12.2 | 0.00 | 0.00 | 0.00 | 69 | 1012.4 |
| 20260901044358 | 61 | 274 | 5.2 | 10.4 | 0.00 | 0.00 | 0.00 | 69 | 1012.3 |
| 20260901043855 | 61 | 244 | 4.3 | 8.7 | 0.00 | 0.00 | 0.00 | 69 | 1012.2 |
| 20260901043356 | 61 | 251 | 4.3 | 7.8 | 0.00 | 0.00 | 0.00 | 68 | 1012.2 |
| 20260901042854 | 62 | 261 | 3.5 | 7.8 | 0.00 | 0.00 | 0.00 | 68 | 1012.2 |
| 20260901042616 | 62 | 275 | 2.6 | 7.0 | 0.00 | 0.00 | 0.00 | 68 | 1012.1 |
| 20260901041852 | 62 | 266 | 2.6 | 7.8 | 0.00 | 0.00 | 0.00 | 67 | 1012.2 |
| 20260901041352 | 62 | 231 | 2.6 | 7.8 | 0.00 | 0.00 | 0.00 | 68 | 1012.1 |
| 20260901040852 | 62 | 268 | 3.5 | 9.6 | 0.00 | 0.00 | 0.00 | 67 | 1011.9 |
| 20260901040349 | 62 | 262 | 4.3 | 9.6 | 0.00 | 0.00 | 0.00 | 67 | 1011.8 |
| 20260901035849 | 62 | 234 | 3.5 | 8.7 | 0.00 | 0.00 | 0.00 | 67 | 1011.8 |
| 20260901035350 | 63 | 242 | 3.5 | 8.7 | 0.00 | 0.00 | 0.00 | 67 | 1011.8 |
| 20260901034846 | 63 | 259 | 2.6 | 6.1 | 0.00 | 0.00 | 0.00 | 67 | 1011.7 |
| 20260901034346 | 63 | 240 | 3.5 | 7.0 | 0.00 | 0.00 | 0.00 | 66 | 1011.7 |
| 20260901033845 | 63 | 232 | 2.6 | 7.0 | 0.00 | 0.00 | 0.00 | 66 | 1011.6 |
| 20260901033346 | 63 | 269 | 2.6 | 7.0 | 0.00 | 0.00 | 0.00 | 66 | 1011.5 |
| 20260901032841 | 63 | 230 | 3.5 | 7.0 | 0.00 | 0.00 | 0.00 | 66 | 1011.4 |
| 20260901032339 | 64 | 243 | 2.6 | 7.8 | 0.00 | 0.00 | 0.00 | 66 | 1011.3 |
| 20260901031839 | 64 | 276 | 3.5 | 7.8 | 0.00 | 0.00 | 0.00 | 65 | 1011.2 |
| 20260901031553 | 64 | 249 | 3.5 | 8.7 | 0.00 | 0.00 | 0.00 | 65 | 1011.1 |
| 20260901031054 | 64 | 245 | 4.3 | 8.7 | 0.00 | 0.00 | 0.00 | 65 | 1011.0 |
| 20260901030332 | 64 | 289 | 4.3 | 7.8 | 0.00 | 0.00 | 0.00 | 65 | 1010.9 |
| 20260901025831 | 64 | 268 | 4.3 | 7.8 | 0.00 | 0.00 | 0.00 | 64 | 1011.0 |
| 20260901025332 | 65 | 273 | 4.3 | 10.4 | 0.00 | 0.00 | 0.00 | 64 | 1011.0 |
| 20260901025055 | 65 | 275 | 4.3 | 10.4 | 0.00 | 0.00 | 0.00 | 64 | 1010.9 |
| 20260901024328 | 65 | 265 | 4.3 | 7.8 | 0.00 | 0.00 | 0.00 | 64 | 1010.9 |
| 20260901023829 | 65 | 259 | 4.3 | 8.7 | 0.00 | 0.00 | 0.00 | 63 | 1010.9 |
| 20260901023541 | 66 | 292 | 5.2 | 8.7 | 0.00 | 0.00 | 0.00 | 62 | 1010.9 |
| 20260901022822 | 66 | 265 | 4.3 | 9.6 | 0.00 | 0.00 | 0.00 | 61 | 1010.9 |
| 20260901022319 | 66 | 281 | 4.3 | 9.6 | 0.00 | 0.00 | 0.00 | 61 | 1010.8 |
| 20260901021819 | 67 | 259 | 5.2 | 8.7 | 0.00 | 0.00 | 0.00 | 61 | 1010.7 |
| 20260901021319 | 67 | 260 | 5.2 | 8.7 | 0.00 | 0.00 | 0.00 | 60 | 1010.7 |
| 20260901020819 | 68 | 273 | 4.3 | 8.7 | 0.00 | 0.00 | 0.00 | 59 | 1010.7 |
| 20260901020318 | 68 | 266 | 4.3 | 8.7 | 0.00 | 0.00 | 0.00 | 58 | 1010.8 |
| 20260901015818 | 68 | 236 | 5.2 | 8.7 | 0.00 | 0.00 | 0.00 | 58 | 1010.8 |
| 20260901015316 | 69 | 255 | 5.2 | 8.7 | 0.00 | 0.00 | 0.00 | 57 | 1010.8 |
| 20260901014818 | 69 | 274 | 5.2 | 9.6 | 0.00 | 0.00 | 0.00 | 56 | 1010.8 |
| 20260901014221 | 70 | 292 | 4.3 | 9.6 | 0.00 | 0.00 | 0.00 | 56 | 1010.8 |
| 20260901013720 | 70 | 246 | 4.3 | 8.7 | 0.00 | 0.00 | 0.00 | 55 | 1010.7 |
| 20260901013217 | 70 | 279 | 4.3 | 8.7 | 0.00 | 0.00 | 0.00 | 55 | 1010.8 |
| 20260901012715 | 71 | 273 | 5.2 | 8.7 | 0.00 | 0.00 | 0.00 | 54 | 1010.7 |
| 20260901012656 | 71 | 243 | 6.1 | 10.4 | 0.00 | 0.00 | 0.00 | 54 | 1010.7 |
| 20260901011709 | 71 | 239 | 6.1 | 10.4 | 0.00 | 0.00 | 0.00 | 53 | 1010.6 |
| 20260901011209 | 72 | 267 | 6.1 | 10.4 | 0.00 | 0.00 | 0.00 | 52 | 1010.6 |
| 20260901010707 | 72 | 265 | 6.1 | 14.8 | 0.00 | 0.00 | 0.00 | 52 | 1010.5 |
| 20260901010207 | 72 | 258 | 7.0 | 14.8 | 0.00 | 0.00 | 0.00 | 52 | 1010.5 |
| 20260901005929 | 73 | 266 | 7.0 | 11.3 | 0.00 | 0.00 | 0.00 | 51 | 1010.5 |
| 20260901005206 | 73 | 292 | 6.1 | 11.3 | 0.00 | 0.00 | 0.00 | 51 | 1010.4 |
| 20260901004706 | 73 | 311 | 5.2 | 11.3 | 0.00 | 0.00 | 0.00 | 50 | 1010.3 |
| 20260901004207 | 74 | 275 | 4.3 | 10.4 | 0.00 | 0.00 | 0.00 | 49 | 1010.4 |
| 20260901003925 | 74 | 244 | 5.2 | 10.4 | 0.00 | 0.00 | 0.00 | 49 | 1010.4 |
| 20260901003206 | 74 | 281 | 6.1 | 10.4 | 0.00 | 0.00 | 0.00 | 48 | 1010.4 |
| 20260901002705 | 74 | 254 | 6.1 | 11.3 | 0.00 | 0.00 | 0.00 | 48 | 1010.4 |
| 20260901002205 | 74 | 256 | 7.0 | 13.0 | 0.00 | 0.00 | 0.00 | 47 | 1010.5 |
| 20260901001704 | 75 | 266 | 7.0 | 13.0 | 0.00 | 0.00 | 0.00 | 47 | 1010.5 |
| 20260901001201 | 75 | 227 | 6.1 | 11.3 | 0.00 | 0.00 | 0.00 | 46 | 1010.5 |
| 20260901000924 | 76 | 229 | 6.1 | 12.2 | 0.00 | 0.00 | 0.00 | 46 | 1010.4 |
| 20260901000159 | 76 | 248 | 6.1 | 12.2 | 0.00 | 0.00 | 0.00 | 45 | 1010.5 |
| 20260831235659 | 76 | 258 | 6.1 | 13.0 | 0.00 | 0.00 | 0.00 | 45 | 1010.5 |
| 20260831235159 | 76 | 230 | 7.0 | 13.0 | 0.00 | 0.00 | 0.00 | 45 | 1010.6 |
| 20260831234658 | 77 | 260 | 6.1 | 12.2 | 0.00 | 0.00 | 0.00 | 45 | 1010.6 |
| 20260831234152 | 77 | 234 | 6.1 | 11.3 | 0.00 | 0.00 | 0.00 | 45 | 1010.6 |
| 20260831233652 | 77 | 236 | 6.1 | 11.3 | 0.00 | 0.00 | 0.00 | 45 | 1010.6 |
| 20260831233152 | 77 | 277 | 6.1 | 11.3 | 0.00 | 0.00 | 0.00 | 44 | 1010.6 |
| 20260831232650 | 77 | 267 | 6.1 | 11.3 | 0.00 | 0.00 | 0.00 | 44 | 1010.6 |
| 20260831232151 | 77 | 284 | 6.1 | 11.3 | 0.00 | 0.00 | 0.00 | 44 | 1010.6 |
| 20260831231651 | 78 | 320 | 6.1 | 12.2 | 0.00 | 0.00 | 0.00 | 43 | 1010.6 |
| 20260831231142 | 78 | 258 | 6.1 | 12.2 | 0.00 | 0.00 | 0.00 | 44 | 1010.7 |
| 20260831230641 | 78 | 221 | 6.1 | 10.4 | 0.00 | 0.00 | 0.00 | 41 | 1010.6 |
| 20260831230141 | 78 | 266 | 6.1 | 10.4 | 0.00 | 0.00 | 0.00 | 42 | 1010.6 |
| 20260831225640 | 78 | 238 | 6.1 | 10.4 | 0.00 | 0.00 | 0.00 | 42 | 1010.7 |
| 20260831225141 | 78 | 226 | 6.1 | 12.2 | 0.00 | 0.00 | 0.00 | 43 | 1010.8 |
| 20260831224640 | 78 | 246 | 6.1 | 12.2 | 0.00 | 0.00 | 0.00 | 43 | 1010.7 |
| 20260831224400 | 78 | 244 | 6.1 | 12.2 | 0.00 | 0.00 | 0.00 | 42 | 1010.9 |
| 20260831223639 | 78 | 232 | 5.2 | 10.4 | 0.00 | 0.00 | 0.00 | 43 | 1010.9 |
| 20260831223136 | 78 | 238 | 6.1 | 10.4 | 0.00 | 0.00 | 0.00 | 43 | 1011.0 |
| 20260831222636 | 78 | 227 | 7.0 | 11.3 | 0.00 | 0.00 | 0.00 | 42 | 1011.0 |
| 20260831222403 | 79 | 225 | 7.8 | 13.0 | 0.00 | 0.00 | 0.00 | 42 | 1011.0 |
| 20260831221627 | 79 | 260 | 7.0 | 13.0 | 0.00 | 0.00 | 0.00 | 42 | 1011.1 |
| 20260831221126 | 79 | 238 | 6.1 | 12.2 | 0.00 | 0.00 | 0.00 | 42 | 1011.1 |
| 20260831220626 | 80 | 253 | 6.1 | 10.4 | 0.00 | 0.00 | 0.00 | 41 | 1011.2 |
| 20260831220125 | 80 | 219 | 5.2 | 10.4 | 0.00 | 0.00 | 0.00 | 41 | 1011.3 |
| 20260831215623 | 79 | 300 | 4.3 | 10.4 | 0.00 | 0.00 | 0.00 | 42 | 1011.3 |
| 20260831215347 | 79 | 301 | 4.3 | 8.7 | 0.00 | 0.00 | 0.00 | 41 | 1011.3 |
| 20260831214620 | 79 | 281 | 5.2 | 10.4 | 0.00 | 0.00 | 0.00 | 42 | 1011.4 |
| 20260831214118 | 79 | 320 | 5.2 | 11.3 | 0.00 | 0.00 | 0.00 | 41 | 1011.5 |
| 20260831213841 | 79 | 274 | 6.1 | 11.3 | 0.00 | 0.00 | 0.00 | 41 | 1011.5 |
| 20260831213119 | 79 | 242 | 6.1 | 10.4 | 0.00 | 0.00 | 0.00 | 42 | 1011.6 |
| 20260831212619 | 78 | 276 | 6.1 | 12.2 | 0.00 | 0.00 | 0.00 | 43 | 1011.7 |
| 20260831212340 | 79 | 300 | 6.1 | 12.2 | 0.00 | 0.00 | 0.00 | 42 | 1011.7 |
| 20260831211617 | 79 | 254 | 6.1 | 11.3 | 0.00 | 0.00 | 0.00 | 42 | 1011.7 |
| 20260831211116 | 80 | 224 | 6.1 | 10.4 | 0.00 | 0.00 | 0.00 | 42 | 1011.8 |
| 20260831210615 | 79 | 274 | 6.1 | 10.4 | 0.00 | 0.00 | 0.00 | 42 | 1011.8 |
| 20260831210115 | 80 | 246 | 5.2 | 10.4 | 0.00 | 0.00 | 0.00 | 41 | 1011.8 |
| 20260831205833 | 80 | 233 | 4.3 | 10.4 | 0.00 | 0.00 | 0.00 | 41 | 1011.8 |
| 20260831205113 | 81 | 244 | 4.3 | 10.4 | 0.00 | 0.00 | 0.00 | 40 | 1011.8 |
| 20260831204612 | 81 | 287 | 5.2 | 10.4 | 0.00 | 0.00 | 0.00 | 39 | 1011.8 |
| 20260831204112 | 81 | 238 | 4.3 | 8.7 | 0.00 | 0.00 | 0.00 | 40 | 1011.9 |
| 20260831203602 | 80 | 215 | 5.2 | 9.6 | 0.00 | 0.00 | 0.00 | 42 | 1011.9 |
| 20260831203101 | 79 | 267 | 6.1 | 13.0 | 0.00 | 0.00 | 0.00 | 43 | 1011.9 |
| 20260831202558 | 80 | 241 | 5.2 | 13.0 | 0.00 | 0.00 | 0.00 | 42 | 1011.9 |
| 20260831202059 | 80 | 274 | 4.3 | 8.7 | 0.00 | 0.00 | 0.00 | 41 | 1012.0 |
| 20260831201824 | 80 | 187 | 3.5 | 9.6 | 0.00 | 0.00 | 0.00 | 41 | 1011.9 |
| 20260831201056 | 80 | 294 | 3.5 | 9.6 | 0.00 | 0.00 | 0.00 | 40 | 1011.8 |
| 20260831200555 | 81 | 215 | 4.3 | 10.4 | 0.00 | 0.00 | 0.00 | 40 | 1011.9 |
| 20260831200054 | 80 | 232 | 4.3 | 10.4 | 0.00 | 0.00 | 0.00 | 41 | 1011.8 |
| 20260831195813 | 78 | 196 | 2.6 | 9.6 | 0.00 | 0.00 | 0.00 | 43 | 1011.9 |
| 20260831195053 | 78 | 300 | 1.7 | 9.6 | 0.00 | 0.00 | 0.00 | 44 | 1011.8 |
| 20260831194547 | 76 | 101 | 0.9 | 3.5 | 0.00 | 0.00 | 0.00 | 45 | 1011.9 |
| 20260831194048 | 78 | 264 | 1.7 | 5.2 | 0.00 | 0.00 | 0.00 | 45 | 1012.0 |
| 20260831193546 | 78 | 290 | 1.7 | 5.2 | 0.00 | 0.00 | 0.00 | 44 | 1012.1 |
| 20260831193045 | 77 | 218 | 0.9 | 5.2 | 0.00 | 0.00 | 0.00 | 47 | 1012.2 |
| 20260831192544 | 76 | 137 | 1.7 | 5.2 | 0.00 | 0.00 | 0.00 | 47 | 1012.2 |
| 20260831192044 | 76 | 220 | 2.6 | 5.2 | 0.00 | 0.00 | 0.00 | 47 | 1012.3 |
| 20260831191557 | 76 | 182 | 2.6 | 7.8 | 0.00 | 0.00 | 0.00 | 47 | 1012.3 |
| 20260831191257 | 76 | 252 | 2.6 | 7.8 | 0.00 | 0.00 | 0.00 | 46 | 1012.4 |
| 20260831190539 | 76 | 193 | 2.6 | 7.0 | 0.00 | 0.00 | 0.00 | 48 | 1012.3 |
| 20260831190037 | 76 | 225 | 2.6 | 7.0 | 0.00 | 0.00 | 0.00 | 46 | 1012.4 |
| 20260831185537 | 75 | 223 | 2.6 | 7.0 | 0.00 | 0.00 | 0.00 | 48 | 1012.4 |
| 20260831185034 | 76 | 229 | 2.6 | 6.1 | 0.00 | 0.00 | 0.00 | 47 | 1012.5 |
| 20260831184534 | 74 | 159 | 1.7 | 6.1 | 0.00 | 0.00 | 0.00 | 49 | 1012.5 |
| 20260831184033 | 74 | 182 | 2.6 | 7.0 | 0.00 | 0.00 | 0.00 | 50 | 1012.5 |
| 20260831183531 | 75 | 250 | 2.6 | 7.0 | 0.00 | 0.00 | 0.00 | 48 | 1012.5 |
| 20260831183031 | 75 | 200 | 1.7 | 6.1 | 0.00 | 0.00 | 0.00 | 48 | 1012.5 |
| 20260831182530 | 74 | 90 | 1.7 | 5.2 | 0.00 | 0.00 | 0.00 | 49 | 1012.5 |
| 20260831182027 | 74 | 236 | 1.7 | 7.0 | 0.00 | 0.00 | 0.00 | 49 | 1012.5 |
| 20260831181524 | 74 | 228 | 1.7 | 7.0 | 0.00 | 0.00 | 0.00 | 51 | 1012.5 |
| 20260831181014 | 71 | 205 | 0.9 | 2.6 | 0.00 | 0.00 | 0.00 | 55 | 1012.5 |
| 20260831180512 | 70 | 13 | 1.7 | 2.6 | 0.00 | 0.00 | 0.00 | 57 | 1012.5 |
| 20260831180453 | 70 | 10 | 0.9 | 3.5 | 0.00 | 0.00 | 0.00 | 60 | 1012.4 |
| 20260831175511 | 70 | 79 | 0.9 | 3.5 | 0.00 | 0.00 | 0.00 | 58 | 1012.4 |
| 20260831175008 | 69 | 82 | 1.7 | 5.2 | 0.00 | 0.00 | 0.00 | 60 | 1012.4 |
| 20260831174955 | 69 | 82 | 0.9 | 5.2 | 0.00 | 0.00 | 0.00 | 61 | 1012.4 |
| 20260831174008 | 68 | 103 | 0.9 | 3.5 | 0.00 | 0.00 | 0.00 | 63 | 1012.4 |
| 20260831173726 | 67 | 113 | 1.7 | 3.5 | 0.00 | 0.00 | 0.00 | 64 | 1012.4 |
| 20260831173006 | 67 | 111 | 1.7 | 3.5 | 0.00 | 0.00 | 0.00 | 64 | 1012.3 |
| 20260831172504 | 66 | 70 | 1.7 | 4.3 | 0.00 | 0.00 | 0.00 | 65 | 1012.4 |
| 20260831172004 | 66 | 61 | 1.7 | 4.3 | 0.00 | 0.00 | 0.00 | 65 | 1012.4 |
| 20260831171505 | 65 | 92 | 1.7 | 4.3 | 0.00 | 0.00 | 0.00 | 65 | 1012.3 |
| 20260831171221 | 65 | 61 | 0.9 | 3.5 | 0.00 | 0.00 | 0.00 | 65 | 1012.2 |
| 20260831170455 | 65 | 93 | 0.9 | 3.5 | 0.00 | 0.00 | 0.00 | 66 | 1012.2 |
| 20260831165954 | 65 | 96 | 1.7 | 3.5 | 0.00 | 0.00 | 0.00 | 68 | 1012.2 |
| 20260831165454 | 64 | 89 | 1.7 | 3.5 | 0.00 | 0.00 | 0.00 | 71 | 1012.1 |
| 20260831164945 | 63 | 63 | 1.7 | 3.5 | 0.00 | 0.00 | 0.00 | 71 | 1012.0 |
| 20260831164711 | 62 | 67 | 1.7 | 3.5 | 0.00 | 0.00 | 0.00 | 73 | 1012.1 |
| 20260831164204 | 62 | 69 | 1.7 | 4.3 | 0.00 | 0.00 | 0.00 | 74 | 1012.0 |
| 20260831163709 | 61 | 71 | 1.7 | 4.3 | 0.00 | 0.00 | 0.00 | 75 | 1011.9 |
| 20260831162941 | 61 | 65 | 1.7 | 4.3 | 0.00 | 0.00 | 0.00 | 76 | 1011.9 |
| 20260831162440 | 61 | 66 | 1.7 | 4.3 | 0.00 | 0.00 | 0.00 | 77 | 1011.9 |
| 20260831162159 | 60 | 67 | 0.9 | 3.5 | 0.00 | 0.00 | 0.00 | 78 | 1011.8 |
| 20260831161440 | 60 | 69 | 0.9 | 3.5 | 0.00 | 0.00 | 0.00 | 79 | 1011.8 |
| 20260831160937 | 60 | 71 | 0.9 | 3.5 | 0.00 | 0.00 | 0.00 | 80 | 1011.8 |
| 20260831160436 | 59 | 65 | 0.9 | 3.5 | 0.00 | 0.00 | 0.00 | 80 | 1011.7 |
| 20260831155935 | 59 | 35 | 0.0 | 2.6 | 0.00 | 0.00 | 0.00 | 81 | 1011.7 |
| 20260831155436 | 59 | 32 | 0.0 | 1.7 | 0.00 | 0.00 | 0.00 | 80 | 1011.7 |
| 20260831155152 | 58 | 32 | 0.0 | 0.9 | 0.00 | 0.00 | 0.00 | 81 | 1011.7 |
| 20260831154436 | 58 | 32 | 0.0 | 0.9 | 0.00 | 0.00 | 0.00 | 81 | 1011.7 |
| 20260831154200 | 58 | 32 | 0.0 | 0.9 | 0.00 | 0.00 | 0.00 | 81 | 1011.6 |
| 20260831153432 | 58 | 32 | 0.0 | 0.9 | 0.00 | 0.00 | 0.00 | 82 | 1011.7 |
| 20260831152931 | 58 | 31 | 0.0 | 1.7 | 0.00 | 0.00 | 0.00 | 82 | 1011.6 |
| 20260831152430 | 58 | 30 | 0.0 | 1.7 | 0.00 | 0.00 | 0.00 | 82 | 1011.7 |
| 20260831151931 | 57 | 30 | 0.0 | 0.9 | 0.00 | 0.00 | 0.00 | 83 | 1011.7 |
| 20260831151420 | 57 | 30 | 0.0 | 0.9 | 0.00 | 0.00 | 0.00 | 83 | 1011.7 |
| 20260831150918 | 57 | 30 | 0.0 | 0.0 | 0.00 | 0.00 | 0.00 | 83 | 1011.7 |
| 20260831150410 | 57 | 30 | 0.0 | 0.0 | 0.00 | 0.00 | 0.00 | 83 | 1011.5 |
| 20260831145907 | 57 | 30 | 0.0 | 0.9 | 0.00 | 0.00 | 0.00 | 83 | 1011.6 |
| 20260831145406 | 57 | 30 | 0.0 | 0.9 | 0.00 | 0.00 | 0.00 | 83 | 1011.5 |
| 20260831144908 | 57 | 30 | 0.0 | 0.9 | 0.00 | 0.00 | 0.00 | 83 | 1011.5 |
| 20260831144407 | 57 | 30 | 0.0 | 0.9 | 0.00 | 0.00 | 0.00 | 82 | 1011.5 |
| 20260831144124 | 57 | 30 | 0.0 | 0.0 | 0.00 | 0.00 | 0.00 | 82 | 1011.5 |
| 20260831143400 | 57 | 30 | 0.0 | 0.0 | 0.00 | 0.00 | 0.00 | 82 | 1011.4 |
| 20260831142900 | 57 | 30 | 0.0 | 0.0 | 0.00 | 0.00 | 0.00 | 82 | 1011.4 |
| 20260831142358 | 57 | 30 | 0.0 | 0.9 | 0.00 | 0.00 | 0.00 | 82 | 1011.3 |
| 20260831142121 | 57 | 30 | 0.0 | 0.9 | 0.00 | 0.00 | 0.00 | 82 | 1011.2 |
| 20260831141358 | 57 | 30 | 0.0 | 0.9 | 0.00 | 0.00 | 0.00 | 82 | 1011.2 |
| 20260831140852 | 57 | 30 | 0.0 | 0.0 | 0.00 | 0.00 | 0.00 | 83 | 1011.1 |
| 20260831140350 | 57 | 30 | 0.0 | 0.9 | 0.00 | 0.00 | 0.00 | 83 | 1011.0 |
| 20260831140338 | 57 | 30 | 0.0 | 0.9 | 0.00 | 0.00 | 0.00 | 83 | 1011.0 |
| 20260831135347 | 57 | 30 | 0.0 | 0.0 | 0.00 | 0.00 | 0.00 | 83 | 1010.9 |
| 20260831134845 | 57 | 30 | 0.0 | 0.9 | 0.00 | 0.00 | 0.00 | 83 | 1010.8 |
| 20260831134343 | 57 | 30 | 0.0 | 0.9 | 0.00 | 0.00 | 0.00 | 83 | 1010.7 |
| 20260831133841 | 56 | 30 | 0.0 | 0.0 | 0.00 | 0.00 | 0.00 | 83 | 1010.7 |
| 20260831133340 | 56 | 30 | 0.0 | 0.0 | 0.00 | 0.00 | 0.00 | 83 | 1010.6 |
| 20260831132837 | 56 | 30 | 0.0 | 0.0 | 0.00 | 0.00 | 0.00 | 83 | 1010.6 |
| 20260831132338 | 57 | 30 | 0.0 | 0.0 | 0.00 | 0.00 | 0.00 | 83 | 1010.6 |
| 20260831131836 | 57 | 30 | 0.0 | 0.0 | 0.00 | 0.00 | 0.00 | 83 | 1010.6 |
| 20260831131549 | 57 | 30 | 0.0 | 0.0 | 0.00 | 0.00 | 0.00 | 83 | 1010.5 |
| 20260831131055 | 57 | 30 | 0.0 | 0.0 | 0.00 | 0.00 | 0.00 | 83 | 1010.6 |
| 20260831130329 | 57 | 30 | 0.0 | 1.7 | 0.00 | 0.00 | 0.00 | 83 | 1010.5 |
| 20260831130055 | 57 | 30 | 0.0 | 2.6 | 0.00 | 0.00 | 0.00 | 83 | 1010.4 |
| 20260831125325 | 58 | 30 | 0.0 | 2.6 | 0.00 | 0.00 | 0.00 | 82 | 1010.3 |
| 20260831124824 | 58 | 302 | 0.0 | 0.0 | 0.00 | 0.00 | 0.00 | 82 | 1010.4 |
| 20260831124547 | 58 | 303 | 0.0 | 0.9 | 0.00 | 0.00 | 0.00 | 81 | 1010.3 |
| 20260831123816 | 58 | 303 | 0.0 | 1.7 | 0.00 | 0.00 | 0.00 | 80 | 1010.3 |
| 20260831123314 | 58 | 303 | 0.9 | 2.6 | 0.00 | 0.00 | 0.00 | 79 | 1010.2 |
| 20260831122813 | 58 | 303 | 0.9 | 4.3 | 0.00 | 0.00 | 0.00 | 78 | 1010.2 |
| 20260831122536 | 58 | 304 | 0.9 | 4.3 | 0.00 | 0.00 | 0.00 | 80 | 1010.2 |
| 20260831121810 | 58 | 293 | 0.0 | 3.5 | 0.00 | 0.00 | 0.00 | 82 | 1010.2 |
| 20260831121308 | 58 | 195 | 0.0 | 0.9 | 0.00 | 0.00 | 0.00 | 82 | 1010.2 |
| 20260831120806 | 58 | 195 | 0.0 | 0.0 | 0.00 | 0.00 | 0.00 | 82 | 1010.1 |
| 20260831120304 | 58 | 195 | 0.0 | 0.0 | 0.00 | 0.00 | 0.00 | 82 | 1010.1 |
| 20260831120257 | 58 | 195 | 0.0 | 0.0 | 0.00 | 0.00 | 0.00 | 82 | 1010.1 |